This is the latest recevied weather packets stored in our database for station/object CA3EVY-3. If no packets are shown the sender has not sent any weather packets the latest 10 day(s).
| Time | Temp. | Humidity | Pressure | Rain* | Wind** | Luminosity | Snow |
|---|---|---|---|---|---|---|---|
| 1788542103 | 17.22° C | 55% | 920.7 hPa | - | - | - | - |
| 1788535804 | 14.44° C | 62% | 921.7 hPa | - | - | - | - |
| 1788534904 | 13.89° C | 62% | 921.9 hPa | - | - | - | - |
| 1788532205 | 13.33° C | 64% | 921.9 hPa | - | - | - | - |
| 1788525003 | 10.56° C | 66% | 922.3 hPa | - | - | - | - |
| 1788521404 | 10° C | 65% | 922.3 hPa | - | - | - | - |
| 1788517804 | 10.56° C | 65% | 921.8 hPa | - | - | - | - |
| 1788516904 | 10.56° C | 65% | 921.9 hPa | - | - | - | - |
| 1788514203 | 11.11° C | 64% | 921.9 hPa | - | - | - | - |
| 1788513305 | 11.11° C | 64% | 921.8 hPa | - | - | - | - |
| 1788510604 | 11.11° C | 65% | 921.9 hPa | - | - | - | - |
| 1788509703 | 11.11° C | 65% | 921.9 hPa | - | - | - | - |
| 1788508803 | 11.67° C | 64% | 921.8 hPa | - | - | - | - |
| 1788507003 | 12.22° C | 64% | 921.8 hPa | - | - | - | - |
| 1788506105 | 12.22° C | 64% | 921.9 hPa | - | - | - | - |
| 1788503403 | 12.22° C | 64% | 922.3 hPa | - | - | - | - |
| 1788502504 | 12.22° C | 64% | 922.5 hPa | - | - | - | - |
| 1788501604 | 12.78° C | 64% | 922.7 hPa | - | - | - | - |
| 1788499804 | 12.78° C | 63% | 922.8 hPa | - | - | - | - |
| 1788498910 | -17.78° C | 63% | 922.8 hPa | - | - | - | - |
| 1788498007 | 12.78° C | 63% | 922.8 hPa | - | - | - | - |
| 1788497105 | 13.33° C | 63% | 922.9 hPa | - | - | - | - |
| 1788496203 | 13.89° C | 63% | 923 hPa | - | - | - | - |
| 1788495304 | 13.89° C | 63% | 923 hPa | - | - | - | - |
| 1788494405 | 13.89° C | 62% | 923 hPa | - | - | - | - |
* Rain since midnight (hover to see other rain measurements)
** Current wind speed in m/s (hover to see current wind gust speed)